This demonstration page uses our WeatherBlox Daily Observations layout. Learn more.

Left ArrowRight Arrow

Hourly Observations for May 15, 2021

Temp ( °F °C ) Dew Point ( °F °C ) Humidity (%) Winds ( mph kmh ) Pressure ( in mb ) Visibility ( mi km ) Precip ( " mm )
12:53 am 00:53 Clear 45 7.2 42 5.6 90 90 N N/A 30.27 1025 10 16 N/A
1:53 am 01:53 Clear 44 6.7 42 5.6 93 93 N N/A 30.28 1026 10 16 N/A
2:53 am 02:53 Clear 43 6.1 41 5 93 93 N N/A 30.28 1025 9 14 N/A
3:53 am 03:53 Clear 40 4.4 38 3.3 93 93 N N/A 30.28 1025 8 13 N/A
4:53 am 04:53 Clear 40 4.4 39 3.9 97 97 N N/A 30.29 1026 10 16 N/A
5:53 am 05:53 Clear with Mist and Fog 40 4.4 39 3.9 97 97 N N/A 30.30 1026 6 10 N/A
6:53 am 06:53 Sunny 39 3.9 38 3.3 96 96 N N/A 30.32 1027 7 11 N/A
7:53 am 07:53 Sunny 46 7.8 43 6.1 89 89 N N/A 30.33 1027 9 14 N/A
8:53 am 08:53 Sunny 53 11.7 47 8.3 80 80 N N/A 30.32 1027 9 14 N/A
9:53 am 09:53 Sunny 60 15.6 45 7.2 58 58 N N/A 30.33 1027 10 16 N/A
10:53 am 10:53 Sunny 67 19.4 44 6.7 44 44 VRB 3 6 30.31 1027 10 16 N/A
11:53 am 11:53 Sunny 69 20.6 34 1.1 27 27 S 5 7 30.31 1026 10 16 N/A
12:53 pm 12:53 Sunny 71 21.7 36 2.2 28 28 VRB 3 6 30.29 1026 10 16 N/A
1:53 pm 13:53 Sunny 71 21.7 34 1.1 26 26 VRB 6 9 30.26 1025 10 16 N/A
2:53 pm 14:53 Sunny 72 22.2 36 2.2 27 27 E 7 11 30.24 1024 10 16 N/A
3:53 pm 15:53 Sunny 72 22.2 34 1.1 25 25 VRB 5 7 30.23 1024 10 16 N/A
4:53 pm 16:53 Sunny 72 22.2 34 1.1 25 25 VRB 5 7 30.21 1023 10 16 N/A
5:53 pm 17:53 Sunny 72 22.2 32 undefined 23 23 VRB 3 6 30.20 1023 10 16 N/A
6:53 pm 18:53 Sunny 70 21.1 40 4.4 34 34 N N/A 30.19 1022 10 16 N/A
7:53 pm 19:53 Mostly Cloudy 65 18.3 44 6.7 47 47 N N/A 30.19 1022 10 16 N/A
8:53 pm 20:53 Mostly Clear 61 16.1 50 10 67 67 N N/A 30.19 1022 10 16 N/A
9:53 pm 21:53 Mostly Cloudy 59 15 47 8.3 64 64 N N/A 30.19 1022 10 16 N/A
10:53 pm 22:53 Cloudy 60 15.6 46 7.8 60 60 N N/A 30.19 1022 10 16 N/A
11:53 pm 23:53 Mostly Cloudy 62 16.7 41 5 46 46 WSW 3 6 30.18 1022 10 16 N/A

Powered by AerisWeather